Chattanooga, TN

8:44 AM EDT on August 18, 2017 (GMT -0400)
Lovell

Weather History for KCHA - January, 2014

Change the Weather History Date:

Monday, January 27, 2014

  Actual Average Record
Temperature  
Mean Temperature 37 °F 41 °F  
Max Temperature 49 °F 51 °F 75 °F (1999)
Min Temperature 24 °F 31 °F 2 °F (1940)
Degree Days  
Heating Degree Days 28 24  
Month to date heating degree days 799 669  
Since 1 July heating degree days 2047 1953  
Moisture  
Dew Point 16 °F    
Average Humidity 44    
Maximum Humidity 70    
Minimum Humidity 17    
Precipitation  
Precipitation T in 0.15 in 1.03 in (1960)
Month to date precipitation 2.29 4.27  
Year to date precipitation 2.29 4.27  
Snow  
Snow 0.00 in 0.00 in - ()
Month to date snowfall T 1.5  
Since 1 July snowfall T 1.8  
Snow Depth 0.00 in    
Sea Level Pressure  
Sea Level Pressure 30.03 in    
Wind  
Wind Speed 10 mph (NNW)    
Max Wind Speed 21 mph    
Max Gust Speed 24 mph    
Visibility 10 miles    
Events Rain    
T = Trace of Precipitation, MM = Missing Value Source: NWS Daily Summary

Daily Weather History Graph

Daily Weather History Graph

Search for Another Location

Airport or City:

Trip Planner

Search our weather history database for the weather conditions in past years. The results will help you decide how hot, cold, wet, or windy it might be!

Date:

Astronomy

Jan. 27, 2014 Rise Set
Actual Time 7:43 AM EST 6:04 PM EST
Civil Twilight 7:16 AM EST 6:31 PM EST
Nautical Twilight 6:45 AM EST 7:01 PM EST
Astronomical Twilight 6:15 AM EST 7:31 PM EST
Moon 4:21 AM EST (1/27) 2:51 PM EST (1/27)
Length of Visible Light 11h 15m
Length of Day
10h 21m
Waning Crescent, 15% of the Moon is Illuminated
Jan 27
Waning Crescent
Jan 30
New
Feb 6
First Quarter
Feb 14
Full
Feb 22
Last Quarter

Hourly Weather History & Observations

Time (EST) Temp. Windchill Dew Point Humidity Pressure Visibility Wind Dir Wind Speed Gust Speed Precip Events Conditions
12:53 AM 48.0 °F - 28.0 °F 46% 29.84 in 10.0 mi South 3.5 mph - N/A   Partly Cloudy
1:53 AM 39.9 °F - 30.0 °F 68% 29.84 in 10.0 mi Calm Calm - N/A   Mostly Cloudy
2:53 AM 41.0 °F 36.4 °F 30.0 °F 65% 29.87 in 10.0 mi West 6.9 mph - N/A   Mostly Cloudy
3:53 AM 45.0 °F 43.5 °F 30.0 °F 56% 29.86 in 10.0 mi SSW 3.5 mph - 0.00 in Rain Light Rain
4:53 AM 44.1 °F - 34.0 °F 68% 29.88 in 10.0 mi Calm Calm - 0.00 in   Overcast
5:53 AM 45.0 °F - 32.0 °F 60% 29.88 in 10.0 mi Calm Calm - N/A   Mostly Cloudy
6:53 AM 46.9 °F - 30.0 °F 52% 29.89 in 10.0 mi SSE 4.6 mph - N/A   Mostly Cloudy
7:53 AM 39.9 °F - 30.9 °F 70% 29.91 in 10.0 mi Calm Calm - N/A   Mostly Cloudy
8:53 AM 43.0 °F 37.7 °F 33.1 °F 68% 29.96 in 10.0 mi NNW 9.2 mph - N/A   Mostly Cloudy
9:53 AM 43.0 °F 36.4 °F 26.1 °F 51% 30.02 in 10.0 mi North 12.7 mph - N/A   Mostly Cloudy
10:53 AM 42.1 °F 36.1 °F 23.0 °F 47% 30.05 in 10.0 mi North 10.4 mph - N/A   Mostly Cloudy
11:53 AM 45.0 °F 38.9 °F 21.9 °F 40% 30.04 in 10.0 mi NNW 12.7 mph - N/A   Mostly Cloudy
12:53 PM 45.0 °F 38.9 °F 12.9 °F 27% 30.06 in 10.0 mi NNW 12.7 mph - N/A   Scattered Clouds
1:53 PM 44.1 °F 37.7 °F 12.0 °F 27% 30.05 in 10.0 mi North 12.7 mph 18.4 mph N/A   Scattered Clouds
2:53 PM 45.0 °F 38.9 °F 10.9 °F 25% 30.06 in 10.0 mi North 12.7 mph - N/A   Scattered Clouds
3:53 PM 42.1 °F 33.9 °F -0.9 °F 17% 30.07 in 10.0 mi North 17.3 mph 23.0 mph N/A   Scattered Clouds
4:53 PM 39.0 °F 31.0 °F -2.9 °F 17% 30.09 in 10.0 mi NNW 13.8 mph - N/A   Scattered Clouds
5:53 PM 35.1 °F 25.9 °F -2.0 °F 21% 30.13 in 10.0 mi NNW 13.8 mph - N/A   Scattered Clouds
6:53 PM 30.9 °F 20.2 °F -2.0 °F 24% 30.18 in 10.0 mi North 15.0 mph - N/A   Scattered Clouds
7:53 PM 28.0 °F 16.5 °F -0.0 °F 30% 30.21 in 10.0 mi NNW 15.0 mph - N/A   Partly Cloudy
8:53 PM 26.1 °F 13.6 °F -0.0 °F 32% 30.23 in 10.0 mi North 16.1 mph - N/A   Partly Cloudy
9:53 PM 26.1 °F 12.3 °F -0.0 °F 32% 30.25 in 10.0 mi North 19.6 mph - N/A   Mostly Cloudy
10:53 PM 25.0 °F 12.2 °F -0.9 °F 33% 30.26 in 10.0 mi North 16.1 mph 21.9 mph N/A   Scattered Clouds
11:53 PM 24.1 °F 11.0 °F -0.0 °F 35% 30.25 in 10.0 mi North 16.1 mph - N/A   Scattered Clouds